Weather History for Marion, SC

Change the Weather History Date:

Thursday, January 31, 2013

  Actual Average (KFLO) Record (KFLO)
Temperature  
Mean Temperature 53 °F 46 °F  
Max Temperature 64 °F 57 °F 85 °F (1975)
Min Temperature 42 °F 35 °F 13 °F (1966)
Degree Days  
Heating Degree Days 12 19  
Month to date heating degree days 622  
Since 1 July heating degree days 1602  
Cooling Degree Days 0 0  
Month to date cooling degree days 2  
Year to date cooling degree days 2  
Growing Degree Days 3 (Base 50)    
Moisture  
Dew Point 33 °F    
Average Humidity 57    
Maximum Humidity 100    
Minimum Humidity 28    
Precipitation  
Precipitation 0.11 in 0.10 in 0.67 in (1948)
Month to date precipitation 3.23  
Year to date precipitation 3.23  
Sea Level Pressure  
Sea Level Pressure 29.91 in    
Wind  
Wind Speed 17 mph (WSW)    
Max Wind Speed 29 mph    
Max Gust Speed 41 mph    
Visibility 10 miles    
Events Rain    
T = Trace of Precipitation, MM = Missing Value Source: NWS Daily Summary

Daily Weather History Graph

Daily Weather History Graph

Search for Another Location

Airport:

Trip Planner

Search our weather history database for the weather conditions in past years. The results will help you decide how hot, cold, wet, or windy it might be!

Date:

Astronomy

Jan. 31, 2013 Rise Set
Actual Time 7:15 AM EST 5:46 PM EST
Civil Twilight 6:48 AM EST 6:13 PM EST
Nautical Twilight 6:18 AM EST 6:43 PM EST
Astronomical Twilight 5:49 AM EST 7:12 PM EST
Moon 10:30 PM EST (1/31) 9:28 AM EST (1/31)
Length of Visible Light 11h 24m
Length of Day
10h 31m
Waning Gibbous, 80% of the Moon is Illuminated
Jan 31
Waning Gibbous
Feb 3
Last Quarter
Feb 10
New
Feb 17
First Quarter
Feb 25
Full

Hourly Weather History & Observations

Time (EST) Temp. Windchill Dew Point Humidity Pressure Visibility Wind Dir Wind Speed Gust Speed Precip Events Conditions
12:15 AM 64.4 °F - 62.6 °F 94% 29.62 in 5.0 mi West 28.8 mph 39.1 mph 0.03 in Rain Rain
12:35 AM 59.0 °F - 55.4 °F 88% 29.64 in 4.0 mi WSW 19.6 mph 41.4 mph N/A Rain Heavy Rain
12:55 AM 57.2 °F - 57.2 °F 100% 29.66 in 4.0 mi WSW 15.0 mph 24.2 mph 0.04 in Rain Rain
1:15 AM 57.2 °F - 57.2 °F 100% 29.66 in 7.0 mi WSW 17.3 mph - 0.01 in Rain Rain
1:35 AM 55.4 °F - 55.4 °F 100% 29.66 in 7.0 mi SW 15.0 mph 28.8 mph 0.04 in Rain Light Rain
1:55 AM 53.6 °F - 53.6 °F 100% 29.66 in 10.0 mi SW 13.8 mph 25.3 mph 0.07 in Rain Light Rain
2:15 AM 53.6 °F - 51.8 °F 94% 29.68 in 10.0 mi SW 20.7 mph 28.8 mph N/A   Overcast
2:35 AM 51.8 °F - 50.0 °F 94% 29.68 in 10.0 mi SW 12.7 mph 21.9 mph N/A   Overcast
2:55 AM 51.8 °F - 50.0 °F 94% 29.69 in 10.0 mi SW 15.0 mph 25.3 mph N/A   Overcast
3:15 AM 51.8 °F - 48.2 °F 88% 29.69 in 10.0 mi SW 16.1 mph 24.2 mph N/A   Overcast
3:35 AM 51.8 °F - 46.4 °F 82% 29.70 in 10.0 mi SW 15.0 mph 24.2 mph N/A   Scattered Clouds
3:55 AM 51.8 °F - 48.2 °F 88% 29.70 in 10.0 mi SW 10.4 mph 19.6 mph N/A   Mostly Cloudy
4:15 AM 51.8 °F - 46.4 °F 82% 29.71 in 10.0 mi WSW 18.4 mph 24.2 mph N/A   Mostly Cloudy
4:35 AM 51.8 °F - 46.4 °F 82% 29.71 in 10.0 mi SW 17.3 mph 21.9 mph N/A   Overcast
4:55 AM 51.8 °F - 46.4 °F 82% 29.73 in 10.0 mi WSW 18.4 mph 28.8 mph N/A   Overcast
5:15 AM 51.8 °F - 37.4 °F 58% 29.76 in 10.0 mi West 28.8 mph 36.8 mph N/A   Overcast
5:35 AM 50.0 °F - 35.6 °F 58% 29.76 in 10.0 mi West 20.7 mph 39.1 mph N/A   Overcast
5:55 AM 48.2 °F - 33.8 °F 58% 29.77 in 10.0 mi West 25.3 mph 35.7 mph N/A   Scattered Clouds
6:15 AM 48.2 °F - 35.6 °F 62% 29.79 in 10.0 mi WSW 20.7 mph 33.4 mph N/A   Scattered Clouds
6:35 AM 46.4 °F 38.5 °F 33.8 °F 62% 29.79 in 10.0 mi WSW 21.9 mph 29.9 mph N/A   Scattered Clouds
6:55 AM 46.4 °F 39.5 °F 33.8 °F 62% 29.82 in 10.0 mi WSW 17.3 mph 28.8 mph N/A   Clear
7:15 AM 44.6 °F 36.1 °F 32.0 °F 61% 29.84 in 10.0 mi WSW 21.9 mph 28.8 mph N/A   Clear
7:55 AM 44.6 °F 37.4 °F 32.0 °F 61% 29.88 in 10.0 mi West 16.1 mph 29.9 mph N/A   Clear
8:15 AM 44.6 °F 35.7 °F 32.0 °F 61% 29.88 in 10.0 mi West 24.2 mph 28.8 mph N/A   Clear
8:35 AM 44.6 °F 37.4 °F 32.0 °F 61% 29.89 in 10.0 mi West 16.1 mph 28.8 mph N/A   Clear
8:55 AM 46.4 °F 39.0 °F 32.0 °F 57% 29.91 in 10.0 mi West 19.6 mph 31.1 mph N/A   Clear
9:15 AM 46.4 °F 39.0 °F 32.0 °F 57% 29.92 in 10.0 mi West 19.6 mph 28.8 mph N/A   Clear
9:35 AM 46.4 °F 38.5 °F 32.0 °F 57% 29.94 in 10.0 mi West 21.9 mph 28.8 mph N/A   Clear
10:15 AM 46.4 °F 39.0 °F 30.2 °F 53% 29.95 in 10.0 mi West 19.6 mph 29.9 mph N/A   Clear
10:35 AM 48.2 °F - 30.2 °F 50% 29.95 in 10.0 mi West 23.0 mph 27.6 mph N/A   Clear
10:55 AM 50.0 °F - 30.2 °F 47% 29.96 in 10.0 mi West 20.7 mph 26.5 mph N/A   Clear
11:15 AM 50.0 °F - 30.2 °F 47% 29.96 in 10.0 mi West 11.5 mph 18.4 mph N/A   Clear
11:35 AM 50.0 °F - 30.2 °F 47% 29.96 in 10.0 mi West 11.5 mph - N/A   Clear
11:55 AM 50.0 °F - 30.2 °F 47% 29.95 in 10.0 mi West 16.1 mph 21.9 mph N/A   Clear
12:15 PM 51.8 °F - 30.2 °F 44% 29.95 in 10.0 mi West 13.8 mph 20.7 mph N/A   Clear
12:35 PM 51.8 °F - 30.2 °F 44% 29.95 in 10.0 mi West 13.8 mph 21.9 mph N/A   Clear
12:55 PM 51.8 °F - 28.4 °F 41% 29.93 in 10.0 mi West 10.4 mph 21.9 mph N/A   Clear
1:15 PM 51.8 °F - 26.6 °F 38% 29.93 in 10.0 mi West 13.8 mph 24.2 mph N/A   Clear
1:35 PM 53.6 °F - 28.4 °F 38% 29.93 in 10.0 mi SW 20.7 mph 26.5 mph N/A   Clear
1:55 PM 53.6 °F - 24.8 °F 33% 29.93 in 10.0 mi West 19.6 mph 28.8 mph N/A   Clear
2:15 PM 53.6 °F - 23.0 °F 30% 29.93 in 10.0 mi West 19.6 mph 27.6 mph N/A   Clear
2:35 PM 53.6 °F - 24.8 °F 33% 29.93 in 10.0 mi WSW 19.6 mph 28.8 mph N/A   Clear
2:55 PM 53.6 °F - 23.0 °F 30% 29.93 in 10.0 mi West 19.6 mph 26.5 mph N/A   Clear
3:15 PM 53.6 °F - 21.2 °F 28% 29.94 in 10.0 mi West 16.1 mph 27.6 mph N/A   Clear
3:35 PM 53.6 °F - 21.2 °F 28% 29.95 in 10.0 mi WSW 16.1 mph 28.8 mph N/A   Clear
4:15 PM 53.6 °F - 21.2 °F 28% 29.96 in 10.0 mi West 18.4 mph 25.3 mph N/A   Clear
4:35 PM 53.6 °F - 21.2 °F 28% 29.97 in 10.0 mi West 16.1 mph 27.6 mph N/A   Clear
4:55 PM 53.6 °F - 23.0 °F 30% 29.99 in 10.0 mi West 12.7 mph 21.9 mph N/A   Clear
5:15 PM 51.8 °F - 21.2 °F 30% 30.00 in 10.0 mi West 18.4 mph 28.8 mph N/A   Clear
5:35 PM 51.8 °F - 21.2 °F 30% 30.00 in 10.0 mi West 15.0 mph 23.0 mph N/A   Clear
5:55 PM 50.0 °F - 23.0 °F 35% 30.01 in 10.0 mi West 11.5 mph - N/A   Clear
6:15 PM 50.0 °F - 23.0 °F 35% 30.02 in 10.0 mi West 8.1 mph - N/A   Clear
6:35 PM 48.2 °F - 23.0 °F 37% 30.03 in 10.0 mi West 9.2 mph - N/A   Clear
6:55 PM 48.2 °F - 23.0 °F 37% 30.04 in 10.0 mi West 9.2 mph - N/A   Clear
7:15 PM 46.4 °F 42.9 °F 23.0 °F 40% 30.05 in 10.0 mi West 6.9 mph - N/A   Clear
7:35 PM 46.4 °F 43.5 °F 24.8 °F 43% 30.06 in 10.0 mi WSW 5.8 mph - N/A   Clear
7:55 PM 44.6 °F 42.2 °F 26.6 °F 49% 30.07 in 10.0 mi SW 4.6 mph - N/A   Clear
8:15 PM 42.8 °F 38.6 °F 26.6 °F 53% 30.07 in 10.0 mi SW 6.9 mph - N/A   Clear
8:35 PM 42.8 °F 39.3 °F 28.4 °F 57% 30.07 in 10.0 mi SW 5.8 mph - N/A   Clear
8:55 PM 42.8 °F 39.3 °F 26.6 °F 53% 30.07 in 10.0 mi SW 5.8 mph - N/A   Clear
9:15 PM 42.8 °F 37.5 °F 28.4 °F 57% 30.08 in 10.0 mi SW 9.2 mph - N/A   Clear
9:35 PM 42.8 °F 38.0 °F 28.4 °F 57% 30.09 in 10.0 mi SW 8.1 mph - N/A   Clear
9:55 PM 42.8 °F 38.0 °F 28.4 °F 57% 30.10 in 10.0 mi SW 8.1 mph - N/A   Clear
10:15 PM 42.8 °F 38.6 °F 28.4 °F 57% 30.10 in 10.0 mi SW 6.9 mph - N/A   Clear
10:35 PM 42.8 °F 38.0 °F 28.4 °F 57% 30.10 in 10.0 mi SW 8.1 mph - N/A   Clear
10:55 PM 42.8 °F 37.5 °F 26.6 °F 53% 30.10 in 10.0 mi SW 9.2 mph - N/A   Clear
11:15 PM 42.8 °F 36.2 °F 26.6 °F 53% 30.11 in 10.0 mi SW 12.7 mph - N/A   Clear
11:35 PM 42.8 °F 36.6 °F 28.4 °F 57% 30.12 in 10.0 mi SW 11.5 mph - N/A   Clear
11:55 PM 42.8 °F 37.0 °F 28.4 °F 57% 30.13 in 10.0 mi WSW 10.4 mph 16.1 mph N/A   Clear